Owensboro, KY

10:00 AM CST on November 12, 2019 (GMT -0600)
Owensboro-Daviess County

Weather History for KOWB - October, 2019

Change the Weather History Date:

Monday, October 21, 2019

  Actual Average Record
Temperature  
Mean Temperature 66 °F -  
Max Temperature 72 °F 68 °F 92 °F (1963)
Min Temperature 57 °F 42 °F 27 °F (1952)
Growing Degree Days 16 (Base 50)    
Moisture  
Dew Point 60 °F    
Average Humidity 87    
Maximum Humidity 100    
Minimum Humidity 73    
Precipitation  
Precipitation 0.10 in - - ()
Sea Level Pressure  
Sea Level Pressure 29.74 in    
Wind  
Wind Speed 14 mph (South)    
Max Wind Speed 28 mph    
Max Gust Speed 33 mph    
Visibility 10 miles    
Events Rain , Thunderstorm    
Averages and records for this station are not official NWS values.
T = Trace of Precipitation, MM = Missing Value Source: NWS Daily Summary

Daily Weather History Graph

Daily Weather History Graph

Search for Another Location

Airport or City:

Astronomy

Oct. 21, 2019 Rise Set
Actual Time 7:02 AM CDT 6:03 PM CDT
Civil Twilight 6:35 AM CDT 6:30 PM CDT
Nautical Twilight 6:05 AM CDT 7:00 PM CDT
Astronomical Twilight 5:34 AM CDT 7:30 PM CDT
Moon No Moon Rise 2:16 PM CDT (10/21)
Length of Visible Light 11h 54m
Length of Day
11h 00m
Waning Gibbous, 48% of the Moon is Illuminated
Oct 21
Waning Gibbous
Oct 27
New
Nov 4
First Quarter
Nov 12
Full
Nov 19
Last Quarter

Hourly Weather History & Observations

Time (CDT) Temp. Dew Point Humidity Pressure Visibility Wind Dir Wind Speed Gust Speed Precip Events Conditions
12:56 AM 60.1 °F 55.9 °F 86% 29.82 in 10.0 mi SE 12.7 mph - N/A   Clear
1:56 AM 60.1 °F 57.0 °F 90% 29.83 in 10.0 mi SSE 9.2 mph - N/A   Clear
2:56 AM 60.1 °F 57.0 °F 90% 29.81 in 10.0 mi SE 8.1 mph - N/A   Scattered Clouds
3:56 AM 61.0 °F 57.0 °F 87% 29.78 in 10.0 mi SE 6.9 mph - N/A   Partly Cloudy
4:56 AM 63.0 °F 57.9 °F 84% 29.73 in 8.0 mi SE 15.0 mph - N/A   Mostly Cloudy
5:12 AM 62.6 °F 57.2 °F 82% 29.74 in 7.0 mi SSE 12.7 mph - 0.00 in Rain , Thunderstorm Light Rain
5:48 AM 60.8 °F 60.8 °F 100% 29.73 in 10.0 mi SE 8.1 mph - 0.02 in   Overcast
5:56 AM 61.0 °F 59.0 °F 93% 29.72 in 7.0 mi SE 10.4 mph - 0.02 in Rain , Thunderstorm Light Thunderstorms and Rain
6:56 AM 63.0 °F 60.1 °F 90% 29.67 in 8.0 mi SSE 19.6 mph - 0.01 in Thunderstorm Thunderstorm
7:56 AM 64.0 °F 62.1 °F 93% 29.71 in 10.0 mi SSW 11.5 mph - 0.03 in Rain , Thunderstorm Light Thunderstorms and Rain
8:14 AM 62.6 °F 62.6 °F 100% 29.72 in 8.0 mi NNW 8.1 mph - 0.00 in Rain , Thunderstorm Light Thunderstorms and Rain
8:56 AM 64.0 °F 63.0 °F 96% 29.75 in 10.0 mi WSW 8.1 mph - 0.00 in Rain , Thunderstorm Light Thunderstorms and Rain
9:56 AM 66.0 °F 64.0 °F 93% 29.71 in 8.0 mi SSE 16.1 mph 20.7 mph 0.04 in Rain , Thunderstorm Light Thunderstorms and Rain
10:08 AM 66.2 °F 64.4 °F 94% 29.70 in 10.0 mi South 18.4 mph 23.0 mph 0.00 in Rain , Thunderstorm Light Thunderstorms and Rain
10:26 AM 69.8 °F 64.4 °F 83% 29.70 in 10.0 mi South 21.9 mph 29.9 mph 0.00 in   Overcast
10:56 AM 70.0 °F 64.0 °F 81% 29.67 in 8.0 mi South 20.7 mph 32.2 mph 0.00 in   Mostly Cloudy
11:03 AM 69.8 °F 64.4 °F 83% 29.67 in 10.0 mi South 19.6 mph 29.9 mph N/A   Overcast
11:56 AM 71.1 °F 64.0 °F 78% 29.68 in 10.0 mi South 21.9 mph 26.5 mph N/A   Mostly Cloudy
12:56 PM 71.1 °F 63.0 °F 75% 29.65 in 10.0 mi South 27.6 mph 33.4 mph 0.00 in   Overcast
1:56 PM 70.0 °F 61.0 °F 73% 29.69 in 10.0 mi South 25.3 mph 32.2 mph 0.00 in Rain Light Rain
2:56 PM 66.9 °F 61.0 °F 81% 29.65 in 10.0 mi South 20.7 mph 28.8 mph 0.00 in Rain Light Rain
3:56 PM 66.9 °F 60.1 °F 79% 29.70 in 10.0 mi SSW 13.8 mph 23.0 mph 0.00 in   Mostly Cloudy
4:06 PM 68.0 °F 60.8 °F 78% 29.70 in 10.0 mi SSW 13.8 mph 19.6 mph N/A   Overcast
4:56 PM 66.9 °F 60.1 °F 79% 29.70 in 10.0 mi SSW 16.1 mph 24.2 mph N/A   Overcast
5:56 PM 66.9 °F 59.0 °F 76% 29.72 in 10.0 mi SSW 17.3 mph - N/A   Mostly Cloudy
6:44 PM 64.4 °F 59.0 °F 83% 29.74 in 10.0 mi SSW 17.3 mph - N/A   Mostly Cloudy
6:51 PM 64.4 °F 59.0 °F 83% 29.74 in 10.0 mi SSW 17.3 mph - N/A   Mostly Cloudy
6:56 PM 64.9 °F 59.0 °F 81% 29.74 in 10.0 mi SSW 17.3 mph - N/A   Mostly Cloudy
7:33 PM 64.4 °F 59.0 °F 83% 29.75 in 10.0 mi SSW 16.1 mph - N/A   Mostly Cloudy
7:46 PM 64.4 °F 59.0 °F 83% 29.76 in 10.0 mi SSW 12.7 mph - N/A   Mostly Cloudy
7:56 PM 63.0 °F 59.0 °F 87% 29.75 in 10.0 mi SSW 12.7 mph - N/A   Partly Cloudy
8:56 PM 62.1 °F 59.0 °F 90% 29.77 in 10.0 mi SSW 12.7 mph - N/A   Partly Cloudy
9:56 PM 60.1 °F 57.9 °F 93% 29.81 in 10.0 mi SSW 10.4 mph - N/A   Clear
10:44 PM 60.8 °F 59.0 °F 94% 29.82 in 10.0 mi SSW 11.5 mph - N/A   Mostly Cloudy
10:56 PM 61.0 °F 59.0 °F 93% 29.82 in 10.0 mi SW 11.5 mph - N/A   Mostly Cloudy
11:20 PM 60.8 °F 59.0 °F 94% 29.83 in 10.0 mi SW 10.4 mph - N/A   Mostly Cloudy
11:56 PM 57.9 °F 57.0 °F 97% 29.83 in 10.0 mi SW 6.9 mph - N/A   Clear